Regional Weather Roundup
Issued by NWS

Home | Current Version | Previous Version | Graphics & Text | Print | Product List | Glossary On
Versions: 1 2 3 4 5 6 7 8 9 10 11 12 13 14 15 16 17 18 19 20 21 22 23 24 25 26 27 28 29 30 31 32 33 34 35 36 37 38 39 40 41 42 43 44 45 46 47 48 49 50
000
ASUS43 KDMX 281906
RWRIA

WEATHER ROUNDUP FOR IOWA
NATIONAL WEATHER SERVICE DES MOINES IA
200 PM CDT TUE MAR 28 2017

NOTE: "FAIR" INDICATES FEW OR NO CLOUDS BELOW 12,000 FEET WITH NO
SIGNIFICANT WEATHER AND/OR OBSTRUCTIONS TO VISIBILITY.

* - THESE STATIONS ARE NOT NWS STATIONS...THUS NOT UNDER NWS
QUALITY CONTROL.  THEY ALSO DO NOT REPORT WEATHER SUCH
AS PRECIPITATION OR FOG.

IAZ001>003-012>014-020>022-031>034-043>046-282000-
   NORTHWEST IOWA

CITY           SKY/WX    TMP DP  RH WIND       PRES   REMARKS
CARROLL *      CLOUDY    52  45  76 SE10      30.11F
CHEROKEE *     SUNNY     58  37  45 NE12      30.11F
DENISON *      CLOUDY    50  43  76 E8        30.12F
LE MARS *      SUNNY     59  37  44 E10G16    30.11F
ORANGE CITY *  MOSUNNY   57  39  51 NE6G21    30.11F
SHELDON *      SUNNY     57  37  47 E13G18    30.10F
SIOUX CITY     MOSUNNY   59  40  49 SE10      30.09F
SPENCER        SUNNY     59  35  40 E14G24    30.12F
STORM LAKE *   SUNNY     55  37  50 E14G21    30.10F
$$

IAZ055>058-069>071-079>083-090>094-282000-
   SOUTHWEST IOWA

CITY           SKY/WX    TMP DP  RH WIND       PRES   REMARKS
ATLANTIC *     CLOUDY    48  43  81 E9        30.10F
AUDUBON *      CLOUDY    50  43  76 E9        30.12F
CLARINDA *     CLOUDY    52  45  76 NE9       30.10F
COUNCIL BLFS * CLOUDY    48  45  87 E9        30.09F
CRESTON *      CLOUDY    50  43  76 E9        30.10F
HARLAN  *      CLOUDY    50  45  81 E9        30.13F
LAMONI         CLOUDY    54  44  69 NE7       30.09F
RED OAK *      CLOUDY    48  43  81 E12       30.10F
SHENANDOAH *   CLOUDY    52  43  71 E7G14     30.09F
$$

IAZ047>049-059>061-072>074-084-282000-
   CENTRAL IOWA

CITY           SKY/WX    TMP DP  RH WIND       PRES   REMARKS
AMES           CLOUDY    50  43  77 E5        30.13F
ANKENY *       CLOUDY    50  43  76 SE6       30.13F
BOONE *        CLOUDY    50  45  81 E7        30.12F
CHARITON *     CLOUDY    50  45  81 E7        30.11F
DES MOINES     CLOUDY    51  42  71 NE6       30.12F
GRINNELL*      CLOUDY    50  42  71 CALM      30.14F
MARSHALLTOWN   CLOUDY    51  43  74 SE6       30.13S
NEWTON *       CLOUDY    50  41  71 NE3       30.12F
PELLA *        PTSUNNY   51  44  76 CALM      30.14S
PERRY *        CLOUDY    50  43  76 E7        30.12F
$$

IAZ004>006-015-016-023>025-035-036-282000-
   NORTH CENTRAL IOWA

CITY           SKY/WX    TMP DP  RH WIND       PRES   REMARKS
ALGONA *       SUNNY     55  41  58 E14G20    30.14S
CLARION *      PTSUNNY   52  45  76 VRB6      30.14S
ESTHERVILLE    SUNNY     55  38  52 E8        30.13F
FORT DODGE *   PTSUNNY   54  41  62 SE10      30.13F
MASON CITY     MOSUNNY   55  38  52 NE9       30.15S
FOREST CITY *    N/A     57  37  47 E6        30.14F
WEBSTER CITY * CLOUDY    50  43  76 SE6       30.11F
IOWA FALLS *   CLOUDY    54  42  65 E6        30.15F
$$

IAZ007>011-017>019-026>030-037>042-050>054-066-282000-
   NORTHEAST IOWA

CITY           SKY/WX    TMP DP  RH WIND       PRES   REMARKS
CEDAR RAPIDS   CLOUDY    50  45  83 NE8       30.13R
CHARLES CITY * SUNNY     55  37  50 CALM      30.14F
CLINTON *      CLOUDY    50  43  77 NE12      30.15S
DECORAH *      SUNNY     54  39  58 CALM      30.13S
DUBUQUE        CLOUDY    48  41  76 NE7       30.14S
MONTICELLO *   CLOUDY    52  41  66 NE10      30.13S
OELWEIN *      MOSUNNY   54  39  58 E6        30.14R
WATERLOO       MOSUNNY   54  39  57 NE6       30.13S
$$

IAZ064-065-067-068-078-282000-
   EAST CENTRAL IOWA

CITY           SKY/WX    TMP DP  RH WIND       PRES   REMARKS
DAVENPORT      CLOUDY    51  42  71 E7        30.14S
IOWA CITY      CLOUDY    51  46  83 E5        30.15S
MUSCATINE *    CLOUDY    50  46  87 E7        30.14S
QUAD CITIES    CLOUDY    53  43  68 E9        30.13F
$$

IAZ062-063-075>077-085>089-095>099-282000-
   SOUTHEAST IOWA

CITY           SKY/WX    TMP DP  RH WIND       PRES   REMARKS
BURLINGTON     CLOUDY    52  45  77 VRB5      30.12R
FAIRFIELD *    CLOUDY    52  43  71 NE6       30.13S
FORT MADISON * CLOUDY    54  54 100 NE6       30.13S
KEOKUK *       CLOUDY    54  45  71 CALM      30.11S
OSKALOOSA *    CLOUDY    51  44  78 E5        30.12F
CENTERVILLE *    N/A     54  46  76 NE3       30.11F
OTTUMWA        CLOUDY    52  46  80 E8        30.12F
WASHINGTON *   CLOUDY    52  46  82 E3        30.14S
$$

ABBREVIATIONS USED IN REMARKS
   TC - TEMPERATURES IN CELSIUS
  WCI - WIND CHILL INDEX
   HX - HEAT INDEX
  VSB - VISIBILITY
$$




USA.gov is the U.S. government's official web portal to all federal, state and local government web resources and services.